Paynesville, MN

6:57 AM CDT on August 19, 2017 (GMT -0500)
Paynesville

Weather History for KPEX - February, 2013

Change the Weather History Date:

Sunday, February 10, 2013

  Actual Average (KLJF) Record (KLJF)
Temperature  
Mean Temperature 26 °F -  
Max Temperature 28 °F 24 °F 48 °F (2017)
Min Temperature 25 °F 7 °F -20 °F (2011)
Degree Days  
Heating Degree Days 38    
Moisture  
Dew Point 25 °F    
Average Humidity 94    
Maximum Humidity 99    
Minimum Humidity 90    
Precipitation  
Precipitation 0.28 in - - ()
Sea Level Pressure  
Sea Level Pressure 29.50 in    
Wind  
Wind Speed 13 mph (NE)    
Max Wind Speed 18 mph    
Max Gust Speed 30 mph    
Visibility 3 miles    
Events Snow    
Averages and records for this station are not official NWS values.
T = Trace of Precipitation, MM = Missing Value Source: NWS Daily Summary

Daily Weather History Graph

Daily Weather History Graph

Search for Another Location

Airport or City:

Trip Planner

Search our weather history database for the weather conditions in past years. The results will help you decide how hot, cold, wet, or windy it might be!

Date:

Astronomy

Feb. 10, 2013 Rise Set
Actual Time 7:27 AM CST 5:39 PM CST
Civil Twilight 6:56 AM CST 6:10 PM CST
Nautical Twilight 6:22 AM CST 6:45 PM CST
Astronomical Twilight 5:47 AM CST 7:19 PM CST
Moon 7:14 AM CST (2/10) 6:36 PM CST (2/10)
Length of Visible Light 11h 13m
Length of Day
10h 12m
New Moon, 0% of the Moon is Illuminated
Feb 10
New Moon
Feb 17
First Quarter
Feb 25
Full
Mar 4
Last Quarter
Mar 11
New

Hourly Weather History & Observations

Time (CST) Temp. Windchill Dew Point Humidity Pressure Visibility Wind Dir Wind Speed Gust Speed Precip Events Conditions
12:13 AM 28.4 °F 18.0 °F 28.0 °F 99% 29.85 in 1.8 mi ESE 12.7 mph - N/A   Overcast
12:33 AM 28.4 °F 18.5 °F 28.0 °F 99% 29.85 in 2.5 mi SE 11.5 mph 20.7 mph N/A   Overcast
12:53 AM 28.4 °F 18.0 °F 27.9 °F 98% 29.85 in 3.0 mi ESE 12.7 mph - N/A   Overcast
1:13 AM 28.4 °F 17.0 °F 27.5 °F 96% 29.84 in 3.0 mi ESE 15.0 mph - N/A   Overcast
1:33 AM 28.2 °F 17.7 °F 27.3 °F 96% 29.81 in 4.0 mi ESE 12.7 mph - N/A   Overcast
1:53 AM 27.9 °F 16.3 °F 27.0 °F 96% 29.81 in 4.0 mi ESE 15.0 mph - N/A   Overcast
2:13 AM 27.9 °F 15.9 °F 26.6 °F 95% 29.80 in 5.0 mi ESE 16.1 mph 21.9 mph N/A   Overcast
2:33 AM 27.9 °F 17.8 °F 26.4 °F 94% 29.80 in 5.0 mi ESE 11.5 mph - N/A   Overcast
2:53 AM 27.9 °F 18.4 °F 26.4 °F 94% 29.79 in 5.0 mi ESE 10.4 mph - N/A   Overcast
3:13 AM 27.7 °F 18.2 °F 26.1 °F 94% 29.77 in 5.0 mi East 10.4 mph - N/A   Overcast
3:33 AM 27.5 °F 17.4 °F 26.1 °F 94% 29.75 in 5.0 mi East 11.5 mph - N/A   Overcast
3:53 AM 27.5 °F 16.3 °F 25.7 °F 93% 29.72 in 4.0 mi East 13.8 mph 18.4 mph N/A Snow Light Snow
4:13 AM 27.5 °F 16.3 °F 25.9 °F 94% 29.73 in 1.8 mi East 13.8 mph 18.4 mph N/A Snow Light Snow
4:33 AM 27.3 °F 16.1 °F 25.9 °F 94% 29.71 in 3.0 mi East 13.8 mph 20.7 mph N/A   Overcast
4:53 AM 27.3 °F 15.6 °F 25.7 °F 94% 29.69 in 3.0 mi East 15.0 mph 21.9 mph N/A Snow Light Snow
5:13 AM 27.3 °F 16.6 °F 25.7 °F 94% 29.68 in 2.5 mi East 12.7 mph 17.3 mph N/A Snow Light Snow
5:33 AM 27.5 °F 18.0 °F 25.7 °F 93% 29.69 in 2.5 mi East 10.4 mph 19.6 mph N/A Snow Light Snow
5:53 AM 27.5 °F 18.0 °F 25.7 °F 93% 29.66 in 3.0 mi East 10.4 mph 16.1 mph N/A Snow Light Snow
6:13 AM 27.3 °F 17.1 °F 25.7 °F 94% 29.65 in 2.5 mi ENE 11.5 mph 18.4 mph N/A Snow Light Snow
6:33 AM 27.1 °F 14.9 °F 25.3 °F 93% 29.62 in 3.0 mi ENE 16.1 mph 21.9 mph N/A   Overcast
6:54 AM 27.3 °F 14.4 °F 25.5 °F 93% 29.66 in 4.0 mi ESE 18.4 mph - N/A Snow Light Snow
7:13 AM 27.1 °F 14.9 °F 25.5 °F 94% 29.62 in 1.0 mi East 16.1 mph 25.3 mph 0.01 in Snow Light Snow
7:33 AM 26.6 °F 13.8 °F 25.5 °F 96% 29.57 in 0.8 mi East 17.3 mph 29.9 mph 0.02 in Snow Light Snow
7:53 AM 26.6 °F 13.4 °F 25.3 °F 95% 29.53 in 0.2 mi ENE 18.4 mph 26.5 mph 0.03 in Snow Snow
8:13 AM 27.0 °F 13.9 °F 25.3 °F 94% 29.54 in 1.2 mi East 18.4 mph 26.5 mph N/A Snow Light Snow
8:33 AM 27.5 °F 15.4 °F 25.7 °F 93% 29.57 in 1.8 mi East 16.1 mph 25.3 mph 0.02 in   Overcast
8:53 AM 27.0 °F 15.2 °F 25.2 °F 93% 29.53 in 0.8 mi ENE 15.0 mph 26.5 mph 0.06 in Snow Light Snow
9:13 AM 26.6 °F 15.2 °F 25.2 °F 94% 29.51 in 0.8 mi ENE 13.8 mph 24.2 mph 0.01 in Snow Light Snow
9:33 AM 26.8 °F 16.5 °F 25.0 °F 93% 29.51 in 1.5 mi ENE 11.5 mph 23.0 mph 0.04 in Snow Light Snow
9:53 AM 27.1 °F 19.7 °F 25.2 °F 92% 29.53 in 1.8 mi ENE 6.9 mph - 0.04 in Snow Light Snow
10:13 AM 27.0 °F 18.0 °F 25.3 °F 94% 29.53 in 0.5 mi ENE 9.2 mph - 0.03 in Snow Snow
10:33 AM 26.8 °F 17.7 °F 25.5 °F 95% 29.50 in 0.2 mi ENE 9.2 mph - 0.10 in Snow Snow
10:53 AM 26.6 °F 16.2 °F 25.5 °F 96% 29.48 in 0.2 mi NE 11.5 mph 16.1 mph 0.13 in Snow Snow
11:13 AM 26.6 °F 17.5 °F 25.5 °F 96% 29.48 in 0.5 mi NE 9.2 mph - N/A Snow Snow
11:33 AM 26.4 °F 16.6 °F 25.2 °F 95% 29.46 in 0.5 mi NE 10.4 mph 16.1 mph N/A Snow Light Snow
11:53 AM 26.1 °F 16.2 °F 24.8 °F 95% 29.45 in 0.5 mi NE 10.4 mph 17.3 mph 0.02 in Snow Snow
12:13 PM 25.7 °F 14.0 °F 24.6 °F 96% 29.43 in 0.5 mi NE 13.8 mph 19.6 mph N/A Snow Light Snow
12:33 PM 26.1 °F 14.5 °F 24.6 °F 94% 29.41 in 0.2 mi NE 13.8 mph 18.4 mph N/A Snow Snow
12:53 PM 25.7 °F 13.5 °F 24.3 °F 94% 29.39 in 0.8 mi NE 15.0 mph - N/A Snow Light Snow
1:13 PM 26.1 °F 15.6 °F 24.6 °F 94% 29.38 in 0.5 mi NE 11.5 mph 20.7 mph N/A Snow Snow
1:33 PM 26.2 °F 15.8 °F 24.8 °F 94% 29.36 in 1.0 mi NE 11.5 mph - N/A Snow Light Snow
1:53 PM 26.6 °F 14.7 °F 24.8 °F 93% 29.36 in 1.5 mi NE 15.0 mph 18.4 mph N/A Snow Light Snow
2:14 PM 27.0 °F 15.6 °F 24.8 °F 92% 29.34 in 1.5 mi NE 13.8 mph 23.0 mph N/A Snow Light Snow
2:33 PM 27.1 °F 15.9 °F 25.0 °F 92% 29.34 in 1.2 mi NE 13.8 mph 20.7 mph N/A Snow Light Snow
2:53 PM 27.1 °F 16.4 °F 25.2 °F 92% 29.33 in 1.0 mi NE 12.7 mph 19.6 mph N/A Snow Light Snow
3:13 PM 27.5 °F 16.8 °F 25.3 °F 92% 29.33 in 1.5 mi NE 12.7 mph - N/A Snow Light Snow
3:33 PM 27.1 °F 17.5 °F 25.5 °F 94% 29.33 in 0.5 mi NE 10.4 mph 16.1 mph N/A Snow Light Snow
3:53 PM 27.3 °F 17.1 °F 25.7 °F 94% 29.33 in 1.2 mi NE 11.5 mph - N/A Snow Light Snow
4:13 PM 27.3 °F 18.4 °F 25.9 °F 94% 29.33 in 1.5 mi NNE 9.2 mph - N/A Snow Light Snow
4:33 PM 27.1 °F 16.4 °F 25.7 °F 94% 29.32 in 1.2 mi NNE 12.7 mph - N/A Snow Light Snow
4:53 PM 26.6 °F 15.2 °F 25.3 °F 95% 29.33 in 2.5 mi NNE 13.8 mph 18.4 mph N/A Snow Light Snow
5:13 PM 26.2 °F 15.2 °F 24.8 °F 94% 29.33 in 1.8 mi NNE 12.7 mph - N/A Snow Light Snow
5:33 PM 25.7 °F 14.6 °F 24.4 °F 95% 29.33 in 1.2 mi NNE 12.7 mph - N/A Snow Light Snow
5:53 PM 25.7 °F 15.1 °F 24.4 °F 95% 29.33 in 2.0 mi NNE 11.5 mph - N/A Snow Light Snow
6:13 PM 25.7 °F 14.0 °F 24.4 °F 95% 29.33 in 2.5 mi NNE 13.8 mph - N/A Snow Light Snow
6:33 PM 25.7 °F 14.6 °F 24.4 °F 95% 29.33 in 4.0 mi NNE 12.7 mph - N/A Snow Light Snow
6:53 PM 26.1 °F 16.2 °F 24.4 °F 94% 29.33 in 5.0 mi NNE 10.4 mph - N/A Snow Light Snow
7:13 PM 26.2 °F 16.4 °F 24.4 °F 93% 29.34 in 5.0 mi North 10.4 mph - N/A Snow Light Snow
7:33 PM 26.4 °F 17.3 °F 24.6 °F 93% 29.34 in 5.0 mi North 9.2 mph 16.1 mph N/A Snow Light Snow
7:53 PM 26.6 °F 16.2 °F 24.6 °F 92% 29.34 in 5.0 mi North 11.5 mph - N/A Snow Light Snow
8:13 PM 26.6 °F 17.5 °F 24.8 °F 93% 29.34 in 5.0 mi North 9.2 mph - N/A   Overcast
8:33 PM 26.8 °F 17.1 °F 24.8 °F 92% 29.35 in 5.0 mi North 10.4 mph - N/A Snow Light Snow
8:53 PM 27.0 °F 16.7 °F 24.8 °F 92% 29.35 in 7.0 mi North 11.5 mph 17.3 mph N/A   Overcast
9:13 PM 27.0 °F 16.7 °F 24.6 °F 91% 29.35 in 10.0 mi NNW 11.5 mph - N/A   Overcast
9:33 PM 27.0 °F 15.6 °F 24.6 °F 91% 29.36 in 7.0 mi NNW 13.8 mph 17.3 mph N/A   Overcast
9:53 PM 27.0 °F 16.1 °F 24.6 °F 91% 29.36 in 5.0 mi NNW 12.7 mph 17.3 mph N/A Snow Light Snow
10:13 PM 27.1 °F 17.5 °F 24.6 °F 90% 29.37 in 7.0 mi NNW 10.4 mph - N/A   Overcast
10:33 PM 27.1 °F 16.9 °F 24.4 °F 90% 29.38 in 10.0 mi NNW 11.5 mph - N/A   Overcast
10:53 PM 27.1 °F 16.9 °F 24.6 °F 90% 29.39 in 10.0 mi NNW 11.5 mph - N/A   Overcast
11:13 PM 27.3 °F 17.1 °F 24.6 °F 90% 29.40 in 7.0 mi NNW 11.5 mph - N/A Snow Light Snow
11:33 PM 27.3 °F 16.6 °F 24.6 °F 90% 29.41 in 10.0 mi NNW 12.7 mph 19.6 mph N/A   Overcast
11:53 PM 27.1 °F 15.9 °F 24.4 °F 90% 29.42 in 10.0 mi NW 13.8 mph 20.7 mph N/A   Overcast